COSMOS 1275 DEB, 12654

Orbit data source: Space-Track

COSMOS 1275 DEB, 12654 is space debris in LEO originally from a launch on Thu, 04 Jun 1981 UTC launched from the Plesetsk Missile And Space Complex (PKMTR). Debris objects in space refer to the collection of defunct objects orbiting the Earth. Examples of debris include non-operational satellites, rocket bodies, and fragments generated from explosions, collisions, or faulty payload assembly.

Loading next visibility...
Identifier
12654, 1981-053J
Orbit
LEO
Country
Flag of CISCIS
Related business
Manufacturer
Unknown
Mission
Spacecraft
Bus & Motor
Unknown
Mass
Unknown
Launch date (UTC)
1981-06-04 (45 years ago)
Launch vehicle
Unknown
Launch site
Plesetsk Missile And Space Complex (PKMTR)
Object type
Payload
Rocket body
Debris
Shape & HBR
Unknown shape, 0.2 m
Radar Cross Section
Medium (>0.1 m² and <1 m²)

Expand to show TLE details & history
Last TLE update: 19 hours ago

TLE from 19 hours ago
0 COSMOS 1275 DEB
1 12654U 81053J   26034.27206701  .00001359  00000-0  77290-3 0  9991
2 12654  82.9842 324.4001 0041891 294.2724 183.9685 14.08796100269249
Epoch: 2026-02-03T06:31Z
TLE epoch observation values (Epoch: 2026-02-03T06:31:46.589Z)
Latitude
61.09543°
Longitude
-99.80956°
Altitude
904.211 km
Speed
7.39 km/s
True Right ascension
08h 46m 21s
True Declination
60° 57' 09"
Sunlit
Object was in full shadow at epoch
Visualization orbit readout
Latitude
Unknown
Longitude
Unknown
Altitude
Unknown
Speed
Unknown
Apparent Right ascension
Unknown
Apparent Declination
Unknown
Sunlit
N/A
Visualization observer readout
Local Sidereal Time
03:14:35
Azimuth
Unknown
Elevation
Unknown
Doppler factor
Unknown
Orbital elements
Apogee altitude
890.919 km
Perigee altitude
830.271 km
Semi-major axis
7,238.732 km
Eccentricity
0.00419
Inclination
82.9842°
RAAN
324.4001°
Arg. of periapsis
294.2724°
True anomaly
183.93545°
Mean anomaly
183.9685°
Eccentric anomaly
183.95196°
Mean motion
3.52411 °/min
Orbital period
102.15 mins
BSTAR
0.0007729
Loading maneuver chart data...
Computing Atmospheric mass density...
Loading historical data...
Loading historical data...
Loading historical data...
Loading historical data...
Loading historical data...
Loading historical data...
Loading historical data...

Documentation

Showing up to 5 results
|